Tracking 29892 objects as of 21-Nov-2024
HD Live streaming from Space Station
objects crossing your sky now

STARLINK-31110

Track STARLINK-31110 now!
10-day predictions
STARLINK-31110 is classified as:


NORAD ID: 58679
Int'l Code: 2023-211N
Perigee: 494.9 km
Apogee: 495.4 km
Inclination: 43.0 °
Period: 94.4 minutes
Semi major axis: 6866 km
RCS: Unknown
Launch date: December 29, 2023
Source: United States (US)
Launch site: AIR FORCE EASTERN TEST RANGE (AFETR)
Your satellite tracking list
Your tracking list is empty




NASA's NSSDC Master Catalog

Two Line Element Set (TLE):
1 58679U 23211N   24325.81201077  .00000666  00000-0  35272-4 0  9997
2 58679  42.9979 238.6799 0000378 243.6889 116.3924 15.25918767 50023
Source of the keplerian elements: AFSPC